WJA1113 KFLL-CYYZ

Flight info

Callsign WJA1113
Flight time N/A
Altitude 37000
Route AGERS1 DUCEN Q87 VIYAP Q69 ISUZO/N0453F390 Q69 RICCS DCT OXMAN LINNG3
Aircraft B38M/M-SDE1FGHILORVWXY/HB1

Departure

Time 2026-05-04 00:31
Airport Fort Lauderdale Hollywood International Airport (KFLL)

Arrival

Time N/A
Airport Toronto Pearson International Airport (CYYZ)
Time Latitude Longitude Altitude Speed Heading
2026-05-03 22:56 26.07289 -80.14421 19 ft 0 kts 102°
2026-05-03 23:25 26.07291 -80.14430 18 ft 3 kts 100°
2026-05-03 23:25 26.07294 -80.14452 18 ft 3 kts 99°
2026-05-03 23:25 26.07298 -80.14473 18 ft 3 kts 107°
2026-05-03 23:25 26.07306 -80.14490 22 ft 3 kts 148°
2026-05-03 23:26 26.07323 -80.14494 18 ft 3 kts 183°
2026-05-03 23:26 26.07336 -80.14493 20 ft 1 kts 184°
2026-05-03 23:26 26.07354 -80.14492 20 ft 3 kts 182°
2026-05-03 23:26 26.07374 -80.14492 21 ft 3 kts 180°
2026-05-03 23:27 26.07394 -80.14492 21 ft 3 kts 179°
2026-05-03 23:27 26.07415 -80.14492 19 ft 3 kts 178°
2026-05-03 23:27 26.07435 -80.14493 20 ft 3 kts 179°
2026-05-03 23:27 26.07455 -80.14492 20 ft 3 kts 187°
2026-05-03 23:28 26.07473 -80.14487 20 ft 3 kts 217°
2026-05-03 23:28 26.07481 -80.14478 19 ft 2 kts 246°
2026-05-03 23:28 26.07485 -80.14464 20 ft 0 kts 228°
2026-05-03 23:31 26.07484 -80.14472 19 ft 2 kts 264°
2026-05-03 23:31 26.07484 -80.14479 19 ft 1 kts 274°
2026-05-03 23:32 26.07484 -80.14488 21 ft 1 kts 270°
2026-05-03 23:32 26.07484 -80.14499 21 ft 2 kts 269°
2026-05-03 23:32 26.07484 -80.14521 20 ft 4 kts 271°
2026-05-03 23:32 26.07476 -80.14553 20 ft 5 kts 227°
2026-05-03 23:33 26.07434 -80.14602 18 ft 7 kts 273°
2026-05-03 23:33 26.07436 -80.14606 18 ft 0 kts 296°
2026-05-03 23:34 26.07441 -80.14612 18 ft 4 kts 318°
2026-05-03 23:35 26.07474 -80.14649 18 ft 8 kts 303°
2026-05-03 23:35 26.07486 -80.14685 18 ft 2 kts 278°
2026-05-03 23:35 26.07488 -80.14703 18 ft 3 kts 275°
2026-05-03 23:35 26.07488 -80.14772 18 ft 18 kts 269°
2026-05-03 23:36 26.07488 -80.14957 18 ft 28 kts 270°
2026-05-03 23:36 26.07489 -80.15178 18 ft 29 kts 270°
2026-05-03 23:36 26.07491 -80.15348 18 ft 7 kts 270°
2026-05-03 23:36 26.07491 -80.15351 18 ft 0 kts 270°
2026-05-03 23:40 26.07491 -80.15374 18 ft 11 kts 270°
2026-05-03 23:40 26.07491 -80.15480 18 ft 8 kts 271°
2026-05-03 23:41 26.07492 -80.15486 18 ft 1 kts 270°
2026-05-03 23:41 26.07492 -80.15515 18 ft 0 kts 271°
2026-05-03 23:42 26.07492 -80.15518 18 ft 2 kts 271°
2026-05-03 23:42 26.07492 -80.15529 18 ft 0 kts 271°
2026-05-03 23:42 26.07492 -80.15531 18 ft 0 kts 270°
2026-05-03 23:43 26.07492 -80.15534 18 ft 0 kts 270°
2026-05-03 23:45 26.07492 -80.15574 18 ft 10 kts 270°
2026-05-03 23:46 26.07492 -80.15592 18 ft 0 kts 269°
2026-05-03 23:49 26.07492 -80.15600 18 ft 3 kts 269°
2026-05-03 23:49 26.07492 -80.15612 18 ft 0 kts 269°
2026-05-03 23:50 26.07492 -80.15615 18 ft 1 kts 269°
2026-05-03 23:50 26.07491 -80.15620 18 ft 0 kts 269°
2026-05-03 23:52 26.07491 -80.15628 18 ft 3 kts 269°
2026-05-03 23:52 26.07491 -80.15684 18 ft 9 kts 270°
2026-05-03 23:52 26.07491 -80.15717 18 ft 0 kts 270°
2026-05-03 23:52 26.07491 -80.15718 18 ft 1 kts 270°
2026-05-03 23:53 26.07491 -80.15732 18 ft 0 kts 269°
2026-05-03 23:53 26.07491 -80.15734 18 ft 0 kts 270°
2026-05-03 23:54 26.07491 -80.15738 18 ft 1 kts 270°
2026-05-03 23:55 26.07491 -80.15742 18 ft 3 kts 272°
2026-05-03 23:55 26.07492 -80.15770 18 ft 0 kts 271°
2026-05-03 23:55 26.07492 -80.15776 18 ft 2 kts 271°
2026-05-03 23:55 26.07493 -80.15792 18 ft 5 kts 271°
2026-05-03 23:56 26.07493 -80.15811 18 ft 0 kts 270°
2026-05-03 23:56 26.07493 -80.15816 18 ft 0 kts 270°
2026-05-03 23:56 26.07493 -80.15823 18 ft 2 kts 270°
2026-05-03 23:56 26.07493 -80.15833 18 ft 0 kts 270°
2026-05-04 00:01 26.07493 -80.15836 18 ft 3 kts 270°
2026-05-04 00:01 26.07493 -80.15900 18 ft 13 kts 270°
2026-05-04 00:01 26.07493 -80.15941 18 ft 0 kts 271°
2026-05-04 00:02 26.07493 -80.15943 18 ft 2 kts 271°
2026-05-04 00:02 26.07493 -80.15944 18 ft 0 kts 272°
2026-05-04 00:03 26.07493 -80.15945 18 ft 0 kts 272°
2026-05-04 00:03 26.07493 -80.15946 18 ft 0 kts 271°
2026-05-04 00:03 26.07493 -80.15947 18 ft 1 kts 271°
2026-05-04 00:05 26.07493 -80.15960 18 ft 6 kts 272°
2026-05-04 00:05 26.07495 -80.16003 18 ft 0 kts 272°
2026-05-04 00:06 26.07495 -80.16007 18 ft 2 kts 271°
2026-05-04 00:06 26.07495 -80.16009 18 ft 0 kts 271°
2026-05-04 00:07 26.07495 -80.16012 18 ft 3 kts 271°
2026-05-04 00:07 26.07495 -80.16043 18 ft 1 kts 269°
2026-05-04 00:07 26.07495 -80.16050 18 ft 0 kts 269°
2026-05-04 00:08 26.07495 -80.16074 18 ft 9 kts 269°
2026-05-04 00:08 26.07494 -80.16163 18 ft 10 kts 270°
2026-05-04 00:08 26.07494 -80.16172 18 ft 0 kts 270°
2026-05-04 00:09 26.07494 -80.16204 18 ft 8 kts 270°
2026-05-04 00:09 26.07494 -80.16220 18 ft 0 kts 270°
2026-05-04 00:12 26.07495 -80.16228 18 ft 3 kts 271°
2026-05-04 00:13 26.07495 -80.16239 18 ft 0 kts 271°
2026-05-04 00:13 26.07495 -80.16243 18 ft 4 kts 271°
2026-05-04 00:14 26.07496 -80.16287 18 ft 3 kts 271°
2026-05-04 00:14 26.07496 -80.16292 18 ft 0 kts 271°
2026-05-04 00:15 26.07496 -80.16297 18 ft 0 kts 271°
2026-05-04 00:15 26.07496 -80.16303 18 ft 0 kts 271°
2026-05-04 00:15 26.07496 -80.16307 18 ft 0 kts 271°
2026-05-04 00:16 26.07496 -80.16308 18 ft 1 kts 271°
2026-05-04 00:16 26.07496 -80.16312 18 ft 0 kts 271°
2026-05-04 00:19 26.07497 -80.16315 18 ft 1 kts 270°
2026-05-04 00:19 26.07496 -80.16356 18 ft 5 kts 270°
2026-05-04 00:20 26.07496 -80.16357 18 ft 0 kts 270°
2026-05-04 00:21 26.07497 -80.16368 18 ft 6 kts 270°
2026-05-04 00:21 26.07497 -80.16410 18 ft 0 kts 270°
2026-05-04 00:21 26.07497 -80.16415 18 ft 2 kts 270°
2026-05-04 00:22 26.07497 -80.16455 18 ft 5 kts 270°
2026-05-04 00:22 26.07497 -80.16457 18 ft 0 kts 270°
2026-05-04 00:23 26.07497 -80.16468 18 ft 3 kts 270°
2026-05-04 00:24 26.07497 -80.16495 18 ft 0 kts 270°
2026-05-04 00:24 26.07497 -80.16499 18 ft 2 kts 270°
2026-05-04 00:24 26.07497 -80.16524 18 ft 1 kts 271°
2026-05-04 00:25 26.07498 -80.16571 18 ft 7 kts 270°
2026-05-04 00:25 26.07507 -80.16619 21 ft 6 kts 306°
2026-05-04 00:25 26.07508 -80.16620 20 ft 0 kts 308°
2026-05-04 00:26 26.07508 -80.16621 20 ft 1 kts 309°
2026-05-04 00:26 26.07510 -80.16622 20 ft 0 kts 309°
2026-05-04 00:27 26.07511 -80.16624 20 ft 1 kts 309°
2026-05-04 00:27 26.07517 -80.16631 19 ft 1 kts 320°
2026-05-04 00:27 26.07538 -80.16641 18 ft 9 kts 346°
2026-05-04 00:28 26.07577 -80.16643 19 ft 2 kts 360°
2026-05-04 00:28 26.07633 -80.16643 20 ft 14 kts 360°
2026-05-04 00:28 26.07697 -80.16590 20 ft 13 kts 93°
2026-05-04 00:28 26.07695 -80.16508 21 ft 1 kts 90°
2026-05-04 00:30 26.07695 -80.16507 21 ft 0 kts 90°
2026-05-04 00:30 26.07694 -80.16487 21 ft 10 kts 90°
2026-05-04 00:30 26.07692 -80.16138 22 ft 79 kts 90°
2026-05-04 00:30 26.07686 -80.15291 18 ft 137 kts 90°
2026-05-04 00:31 26.07684 -80.14096 211 ft 163 kts 90°
2026-05-04 00:31 26.07778 -80.12783 618 ft 182 kts 86°
2026-05-04 00:31 26.07836 -80.11335 1192 ft 189 kts 89°
2026-05-04 00:31 26.07896 -80.09875 1799 ft 197 kts 79°
2026-05-04 00:32 26.08375 -80.08328 2100 ft 226 kts 64°
2026-05-04 00:32 26.09462 -80.06972 2498 ft 246 kts 28°
2026-05-04 00:32 26.11019 -80.06301 3490 ft 242 kts 20°
2026-05-04 00:32 26.12646 -80.05647 4164 ft 253 kts 19°
2026-05-04 00:33 26.14363 -80.05029 4813 ft 268 kts
2026-05-04 00:33 26.17922 -80.06075 6271 ft 273 kts 334°
2026-05-04 00:33 26.19717 -80.06850 7036 ft 278 kts 335°
2026-05-04 00:34 26.21536 -80.07604 7866 ft 280 kts 336°
2026-05-04 00:34 26.23375 -80.08353 8713 ft 283 kts 335°
2026-05-04 00:34 26.25235 -80.09101 9606 ft 286 kts 335°
2026-05-04 00:34 26.27121 -80.09855 10349 ft 293 kts 335°
2026-05-04 00:35 26.29104 -80.10641 10743 ft 312 kts 336°
2026-05-04 00:35 26.31202 -80.11466 11190 ft 327 kts 336°
2026-05-04 00:35 26.33372 -80.12319 11883 ft 332 kts 336°
2026-05-04 00:35 26.35556 -80.13184 12632 ft 337 kts 335°
2026-05-04 00:36 26.37786 -80.14068 13417 ft 341 kts 335°
2026-05-04 00:36 26.40038 -80.14961 14170 ft 346 kts 335°
2026-05-04 00:36 26.42315 -80.15865 14882 ft 350 kts 335°
2026-05-04 00:36 26.44621 -80.16781 15630 ft 353 kts 334°
2026-05-04 00:37 26.46940 -80.17703 16398 ft 355 kts 334°
2026-05-04 00:37 26.49284 -80.18634 17057 ft 360 kts 334°
2026-05-04 00:37 26.51657 -80.19577 17759 ft 364 kts 334°
2026-05-04 00:37 26.54058 -80.20532 18430 ft 368 kts 333°
2026-05-04 00:38 26.56480 -80.21495 19016 ft 371 kts 333°
2026-05-04 00:38 26.58918 -80.22466 19589 ft 374 kts 333°
2026-05-04 00:38 26.61383 -80.23447 20162 ft 377 kts 332°
2026-05-04 00:38 26.63830 -80.24423 20716 ft 380 kts 332°
2026-05-04 00:39 26.66330 -80.25419 21271 ft 384 kts 332°
2026-05-04 00:39 26.68859 -80.26427 21820 ft 387 kts 332°
2026-05-04 00:39 26.71402 -80.27442 22367 ft 390 kts 332°
2026-05-04 00:39 26.73966 -80.28466 22881 ft 393 kts 332°
2026-05-04 00:40 26.76558 -80.29501 23407 ft 396 kts 331°
2026-05-04 00:40 26.79161 -80.30541 23868 ft 399 kts 331°
2026-05-04 00:40 26.81788 -80.31591 24303 ft 402 kts 331°
2026-05-04 00:40 26.84433 -80.32648 24763 ft 405 kts 331°
2026-05-04 00:41 26.87098 -80.33715 25187 ft 408 kts 331°
2026-05-04 00:41 26.89777 -80.34788 25606 ft 411 kts 330°
2026-05-04 00:41 26.92477 -80.35869 26030 ft 413 kts 330°
2026-05-04 00:41 26.95193 -80.36958 26441 ft 416 kts 330°
2026-05-04 00:42 26.97926 -80.38054 26850 ft 419 kts 330°
2026-05-04 00:42 27.00675 -80.39157 27243 ft 421 kts 330°
2026-05-04 00:42 27.03445 -80.40269 27639 ft 424 kts 330°
2026-05-04 00:42 27.06230 -80.41387 28034 ft 426 kts 330°
2026-05-04 00:43 27.09030 -80.42513 28417 ft 429 kts 330°
2026-05-04 00:43 27.11851 -80.43647 28794 ft 432 kts 330°
2026-05-04 00:43 27.14686 -80.44788 29173 ft 434 kts 330°
2026-05-04 00:43 27.17539 -80.45937 29564 ft 437 kts 330°
2026-05-04 00:44 27.20409 -80.47092 29922 ft 440 kts 330°
2026-05-04 00:44 27.23305 -80.48260 30268 ft 442 kts 330°
2026-05-04 00:44 27.26209 -80.49431 30555 ft 445 kts 330°
2026-05-04 00:44 27.29133 -80.50611 30852 ft 448 kts 330°
2026-05-04 00:45 27.32075 -80.51799 31137 ft 450 kts 330°
2026-05-04 00:45 27.35030 -80.52993 31425 ft 453 kts 329°
2026-05-04 00:45 27.38005 -80.54196 31773 ft 456 kts 329°
2026-05-04 00:45 27.40991 -80.55403 32174 ft 457 kts 329°
2026-05-04 00:46 27.43954 -80.56602 32423 ft 461 kts 329°
2026-05-04 00:46 27.47020 -80.57842 32679 ft 463 kts 329°
2026-05-04 00:46 27.50015 -80.59056 32964 ft 465 kts 329°
2026-05-04 00:46 27.53111 -80.60311 33212 ft 468 kts 329°
2026-05-04 00:47 27.56139 -80.61539 33462 ft 470 kts 328°
2026-05-04 00:47 27.59225 -80.62792 33725 ft 472 kts 328°
2026-05-04 00:47 27.62315 -80.64047 34060 ft 472 kts 328°
2026-05-04 00:47 27.65407 -80.65303 34377 ft 472 kts 328°
2026-05-04 00:48 27.68493 -80.66558 34737 ft 470 kts 328°
2026-05-04 00:48 27.71566 -80.67809 35133 ft 469 kts 328°
2026-05-04 00:48 27.74626 -80.69055 35487 ft 467 kts 328°
2026-05-04 00:48 27.77673 -80.70297 35910 ft 464 kts 327°
2026-05-04 00:49 27.80699 -80.71531 36260 ft 462 kts 327°
2026-05-04 00:49 27.83720 -80.72764 36595 ft 460 kts 327°
2026-05-04 00:49 27.86723 -80.73990 36905 ft 458 kts 327°
2026-05-04 00:49 27.89723 -80.75215 37071 ft 458 kts 327°
2026-05-04 00:50 27.92714 -80.76437 37068 ft 456 kts 326°
2026-05-04 00:50 27.98656 -80.78866 37076 ft 454 kts 326°
2026-05-04 00:51 28.04603 -80.81301 37055 ft 454 kts 326°
2026-05-04 00:51 28.10539 -80.83734 37074 ft 454 kts 326°
2026-05-04 00:52 28.16475 -80.86169 37066 ft 454 kts 326°
2026-05-04 00:52 28.22413 -80.88609 37071 ft 454 kts 326°
2026-05-04 00:53 28.28351 -80.91051 37097 ft 454 kts 326°
2026-05-04 00:53 28.34285 -80.93495 37085 ft 454 kts 326°
2026-05-04 00:54 28.40221 -80.95942 37103 ft 454 kts 325°
2026-05-04 00:54 28.46162 -80.98394 37094 ft 454 kts 325°
2026-05-04 00:55 28.52101 -81.00849 37087 ft 454 kts 325°
2026-05-04 00:55 28.58041 -81.03306 37082 ft 454 kts 325°
2026-05-04 00:56 28.63987 -81.05769 37093 ft 455 kts 325°
2026-05-04 00:56 28.69931 -81.08234 37114 ft 454 kts 324°
2026-05-04 00:57 28.75865 -81.10698 37094 ft 454 kts 324°
2026-05-04 00:57 28.81812 -81.13171 37090 ft 455 kts 324°
2026-05-04 00:58 28.87755 -81.15645 37107 ft 455 kts 324°
2026-05-04 00:58 28.93662 -81.18107 37115 ft 455 kts 324°
2026-05-04 00:59 28.99608 -81.20588 37136 ft 456 kts 324°
2026-05-04 00:59 29.05578 -81.23082 37131 ft 457 kts 324°
2026-05-04 01:00 29.11548 -81.25580 37127 ft 457 kts 324°
2026-05-04 01:00 29.17515 -81.28079 37126 ft 457 kts 324°
2026-05-04 01:01 29.23476 -81.30578 37119 ft 455 kts 325°
2026-05-04 01:01 29.29744 -81.32364 37061 ft 486 kts 344°
2026-05-04 01:02 29.36504 -81.32806 37069 ft 488 kts 343°
2026-05-04 01:02 29.43291 -81.33228 37109 ft 489 kts 343°
2026-05-04 01:03 29.50084 -81.33633 37108 ft 489 kts 343°
2026-05-04 01:03 29.56874 -81.34035 37159 ft 488 kts 344°
2026-05-04 01:04 29.63630 -81.34435 37109 ft 485 kts 344°
2026-05-04 01:04 29.70381 -81.34834 37124 ft 486 kts 344°
2026-05-04 01:05 29.77135 -81.35234 37131 ft 486 kts 344°
2026-05-04 01:05 29.83886 -81.35635 37181 ft 486 kts 344°
2026-05-04 01:06 29.90619 -81.36035 37131 ft 484 kts 344°
2026-05-04 01:06 29.97351 -81.36436 37139 ft 485 kts 344°
2026-05-04 01:07 30.04081 -81.36836 37140 ft 484 kts 344°
2026-05-04 01:07 30.10816 -81.37238 37134 ft 484 kts 344°
2026-05-04 01:08 30.17533 -81.37639 37122 ft 482 kts 345°
2026-05-04 01:08 30.24218 -81.38039 37129 ft 482 kts 345°
2026-05-04 01:09 30.29787 -81.38373 37128 ft 482 kts 345°
2026-05-04 01:09 30.36480 -81.38774 37128 ft 482 kts 345°
2026-05-04 01:10 30.43172 -81.39176 37127 ft 482 kts 345°
2026-05-04 01:10 30.49880 -81.39539 37127 ft 483 kts 345°
2026-05-04 01:11 30.56589 -81.39893 37135 ft 482 kts 345°